Location: Unspecified
(0.0000°N, 0.0000°E)
Time: 06:38:37
(UTC+00:00)

Courier 1B - Pass Details

Date: 01 October 2023
Orbit: 962 x 1208 km, 28.3° (Epoch: 06 December)

Event Time Altitude Azimuth Distance (km) Brightness Sun altitude
Rises 08:07:57 0° 250° (WSW) 3,710 10.1 34.5°
Reaches altitude 10° 08:10:37 10° 255° (WSW) 2,788 9.5 35.1°
Maximum altitude 08:17:14 54° 331° (NNW) 1,262 8.4 36.8°
Drops below altitude 10° 08:24:17 10° 47° (NE) 2,959 10.7 38.6°
Sets 08:27:12 0° 51° (NE) 3,954 11.2 39.3°
